Погода в Сиди-Бель-Аббес

Алжир     35°11′52″N   0°37′26″E
темп.,
°C
ветер,
м/с
пор.,
м/с
влажн.,
%
обл.,
%
осадки,
мм/ч
давл.,
гПа
погр.,
м
12 мая, ср
ср1201:00+11ююз22490 0.0 102210
04:00+10ю11514 0.0 102010
07:00+12ю22455 0.0 102011
10:00+19з342121 0.0 1020675
13:00+23зсз5624100 0.0 10191194
16:00+23зсз772830 0.0 10181053
19:00+20зсз5732100 0.0 1018602
22:00+17з33374 0.0 102038
13 мая, чт
чт1301:00+16зюз33365 0.0 101926
04:00+15юз334163 0.0 101822
07:00+15юз23460 0.0 101843
10:00+21з68380 0.0 10181184
13:00+24зсз88290 0.0 10161523
16:00+23зсз89260 0.0 10151062
19:00+20зсз68310 0.0 1015594
22:00+17зюз33380 0.0 101641
14 мая, пт
пт1401:00+16зюз33360 0.0 101630
04:00+16юз33374 0.0 101527
07:00+17зюз343763 0.0 101550
10:00+23з563418 0.0 1015902
13:00+25зсз67325 0.0 10151312
16:00+25зсз77345 0.0 10141153
19:00+21сз56431 0.0 1015642
22:00+18св00555 0.0 101811
15 мая, сб
сб1501:00+17юв11635 0.0 101711
04:00+16всв12675 0.0 101711
07:00+17вюв116452 0.0 101811
10:00+23вюв22355 0.0 1018636
13:00+28всв21191 0.0 10171264
16:00+31ссв22170 0.0 10151573
19:00+26ссв55310 0.0 1015349
22:00+22всв234180 0.0 101633
16 мая, вс
вс1601:00+21юв124266 0.0 101611
04:00+20вюв11430 0.0 101411
07:00+22вюв11410 0.0 101411
10:00+30ююв25210 0.0 1014843
13:00+36ссз351424 0.0 10122803
16:00+34с752053 0.0 1010951
19:00+30св45260 0.0 1011502
22:00+26ссв22323 0.0 101213